Meteo pe oră la Bolshoe Demidkovo

Astăzi, 9 Mai, Duminică

Timp Temperatura Precipitaţii Vânt Presiune Umiditate
00:00 +2°C° 0 mm 2 m/s 747 mmHg 94%
01:00 +2°C° 0 mm 2 m/s 748 mmHg 94%
02:00 +1°C° 0 mm 2 m/s 748 mmHg 94%
03:00 +1°C° 0 mm 2 m/s 748 mmHg 94%
04:00 +1°C° 0 mm 2 m/s 749 mmHg 94%
05:00 +1°C° 0 mm 2 m/s 749 mmHg 94%
06:00 +2°C° 0 mm 2 m/s 749 mmHg 89%
07:00 +4°C° 0 mm 2 m/s 750 mmHg 83%
08:00 +6°C° 0 mm 2 m/s 750 mmHg 78%
09:00 +8°C° 0 mm 2 m/s 750 mmHg 69%
10:00 +9°C° 0 mm 3 m/s 750 mmHg 60%
11:00 +11°C° 0 mm 3 m/s 750 mmHg 51%
12:00 +12°C° 0 mm 4 m/s 749 mmHg 49%
13:00 +13°C° 0 mm 4 m/s 749 mmHg 48%
14:00 +13°C° 0 mm 5 m/s 749 mmHg 47%
15:00 +13°C° 0 mm 4 m/s 749 mmHg 52%
16:00 +13°C° 0 mm 4 m/s 749 mmHg 57%
17:00 +12°C° 0 mm 3 m/s 748 mmHg 63%
18:00 +12°C° 0 mm 3 m/s 748 mmHg 65%
19:00 +11°C° 0 mm 3 m/s 748 mmHg 67%
20:00 +11°C° 0 mm 3 m/s 749 mmHg 69%
21:00 +11°C° 0 mm 4 m/s 749 mmHg 69%
22:00 +10°C° 0 mm 4 m/s 749 mmHg 69%
23:00 +10°C° 0 mm 4 m/s 749 mmHg 69%

Mâine, 10 Mai, Luni

Timp Temperatura Precipitaţii Vânt Presiune Umiditate
00:00 +10°C° 0 mm 4 m/s 749 mmHg 70%
01:00 +10°C° 0 mm 4 m/s 749 mmHg 72%
02:00 +8°C° 0 mm 4 m/s 749 mmHg 74%
03:00 +7°C° 0 mm 4 m/s 749 mmHg 78%
04:00 +7°C° 0 mm 4 m/s 749 mmHg 81%
05:00 +6°C° 0 mm 4 m/s 749 mmHg 85%
06:00 +8°C° 0 mm 5 m/s 749 mmHg 80%
07:00 +10°C° 0 mm 5 m/s 749 mmHg 75%
08:00 +11°C° 0 mm 6 m/s 750 mmHg 69%
09:00 +14°C° 0 mm 6 m/s 750 mmHg 64%
10:00 +16°C° 0 mm 7 m/s 749 mmHg 59%
11:00 +17°C° 0 mm 7 m/s 749 mmHg 54%
12:00 +18°C° 0 mm 7 m/s 749 mmHg 53%
13:00 +18°C° 0 mm 7 m/s 749 mmHg 53%
14:00 +20°C° 0 mm 7 m/s 749 mmHg 52%
15:00 +18°C° 0 mm 7 m/s 749 mmHg 55%
16:00 +18°C° 0 mm 7 m/s 749 mmHg 59%
17:00 +18°C° 0 mm 7 m/s 748 mmHg 62%
18:00 +17°C° 0 mm 6 m/s 749 mmHg 65%
19:00 +15°C° 0 mm 6 m/s 749 mmHg 68%
20:00 +14°C° 0 mm 5 m/s 749 mmHg 72%
21:00 +13°C° 0 mm 5 m/s 749 mmHg 73%
22:00 +12°C° 0 mm 5 m/s 749 mmHg 74%
23:00 +12°C° 0 mm 5 m/s 749 mmHg 76%

Poimâine, 11 Mai, Marţi

Timp Temperatura Precipitaţii Vânt Presiune Umiditate
00:00 +10°C° 0 mm 5 m/s 749 mmHg 76%
01:00 +10°C° 0 mm 5 m/s 749 mmHg 77%
02:00 +9°C° 0 mm 5 m/s 749 mmHg 78%
03:00 +9°C° 0 mm 5 m/s 749 mmHg 79%
04:00 +8°C° 0 mm 5 m/s 749 mmHg 80%
05:00 +8°C° 0 mm 5 m/s 749 mmHg 82%
06:00 +9°C° 0 mm 6 m/s 749 mmHg 78%
07:00 +11°C° 0 mm 7 m/s 749 mmHg 74%
08:00 +12°C° 0 mm 7 m/s 749 mmHg 71%
09:00 +13°C° 0 mm 8 m/s 749 mmHg 66%
10:00 +16°C° 0 mm 8 m/s 749 mmHg 61%
11:00 +17°C° 0 mm 8 m/s 749 mmHg 56%
12:00 +18°C° 0 mm 8 m/s 749 mmHg 55%
13:00 +18°C° 0 mm 8 m/s 748 mmHg 53%
14:00 +20°C° 0 mm 8 m/s 748 mmHg 52%
15:00 +20°C° 0 mm 7 m/s 748 mmHg 54%
16:00 +18°C° 0 mm 7 m/s 748 mmHg 55%
17:00 +18°C° 0 mm 7 m/s 748 mmHg 57%
18:00 +16°C° 0 mm 6 m/s 747 mmHg 61%
19:00 +15°C° 0 mm 5 m/s 747 mmHg 65%
20:00 +13°C° 0 mm 5 m/s 747 mmHg 69%
21:00 +12°C° 0 mm 5 m/s 747 mmHg 69%
22:00 +10°C° 0 mm 5 m/s 747 mmHg 69%
23:00 +9°C° 0 mm 5 m/s 747 mmHg 69%

12 Mai, Miercuri

Timp Temperatura Precipitaţii Vânt Presiune Umiditate
00:00 +9°C° 0 mm 5 m/s 747 mmHg 72%
01:00 +10°C° 0 mm 4 m/s 747 mmHg 75%
02:00 +8°C° 0 mm 4 m/s 747 mmHg 78%
03:00 +8°C° 0 mm 4 m/s 747 mmHg 82%
04:00 +8°C° 0 mm 4 m/s 747 mmHg 86%
05:00 +8°C° 0 mm 4 m/s 747 mmHg 90%
06:00 +9°C° 0 mm 5 m/s 746 mmHg 86%
07:00 +12°C° 0 mm 5 m/s 746 mmHg 83%
08:00 +14°C° 0 mm 6 m/s 746 mmHg 80%
09:00 +15°C° 0 mm 6 m/s 746 mmHg 73%
10:00 +16°C° 0 mm 6 m/s 746 mmHg 65%
11:00 +17°C° 0 mm 7 m/s 746 mmHg 58%
12:00 +19°C° 0 mm 6 m/s 745 mmHg 58%
13:00 +19°C° 0 mm 6 m/s 745 mmHg 57%
14:00 +20°C° 0 mm 6 m/s 745 mmHg 56%
15:00 +19°C° 0 mm 5 m/s 744 mmHg 63%
16:00 +17°C° 0 mm 5 m/s 744 mmHg 70%
17:00 +15°C° 0 mm 4 m/s 744 mmHg 78%
18:00 +14°C° 0 mm 4 m/s 743 mmHg 80%
19:00 +13°C° 0 mm 4 m/s 743 mmHg 83%
20:00 +13°C° 0 mm 3 m/s 743 mmHg 86%
21:00 +12°C° 0.2 mm 4 m/s 743 mmHg 88%
22:00 +11°C° 0.2 mm 4 m/s 743 mmHg 89%
23:00 +9°C° 0.2 mm 5 m/s 743 mmHg 90%

13 Mai, Joi

Timp Temperatura Precipitaţii Vânt Presiune Umiditate
00:00 +8°C° 0 mm 5 m/s 743 mmHg 91%
01:00 +8°C° 0 mm 5 m/s 743 mmHg 93%
02:00 +7°C° 0 mm 4 m/s 743 mmHg 94%
03:00 +7°C° 0 mm 4 m/s 743 mmHg 95%
04:00 +6°C° 0 mm 4 m/s 743 mmHg 95%
05:00 +6°C° 0 mm 4 m/s 743 mmHg 96%
06:00 +7°C° 0 mm 4 m/s 742 mmHg 92%
07:00 +8°C° 0 mm 4 m/s 742 mmHg 89%
08:00 +9°C° 0 mm 5 m/s 742 mmHg 86%
09:00 +10°C° 0.1 mm 5 m/s 741 mmHg 83%
10:00 +11°C° 0.1 mm 4 m/s 741 mmHg 81%
11:00 +12°C° 0.1 mm 4 m/s 741 mmHg 78%
12:00 +11°C° 0.1 mm 4 m/s 740 mmHg 82%
13:00 +11°C° 0.1 mm 4 m/s 740 mmHg 85%
14:00 +10°C° 0.1 mm 3 m/s 740 mmHg 89%
15:00 +10°C° 0.1 mm 2 m/s 739 mmHg 89%
16:00 +10°C° 0.1 mm 2 m/s 739 mmHg 89%
17:00 +12°C° 0.1 mm 1 m/s 739 mmHg 90%
18:00 +11°C° 0 mm 1 m/s 738 mmHg 91%
19:00 +11°C° 0 mm 1 m/s 738 mmHg 92%
20:00 +11°C° 0 mm 1 m/s 738 mmHg 93%
21:00 +10°C° 0 mm 1 m/s 738 mmHg 94%
22:00 +10°C° 0 mm 1 m/s 738 mmHg 94%
23:00 +9°C° 0 mm 2 m/s 738 mmHg 94%

14 Mai, Vineri

Timp Temperatura Precipitaţii Vânt Presiune Umiditate
00:00 +9°C° 0 mm 1 m/s 738 mmHg 94%
01:00 +9°C° 0 mm 1 m/s 738 mmHg 94%
02:00 +9°C° 0 mm 1 m/s 738 mmHg 93%
03:00 +8°C° 0 mm 2 m/s 738 mmHg 94%
04:00 +7°C° 0 mm 2 m/s 738 mmHg 94%
05:00 +7°C° 0 mm 2 m/s 739 mmHg 94%
06:00 +8°C° 0 mm 2 m/s 739 mmHg 90%
07:00 +10°C° 0 mm 2 m/s 739 mmHg 85%
08:00 +12°C° 0 mm 2 m/s 739 mmHg 81%
09:00 +14°C° 0 mm 2 m/s 739 mmHg 74%
10:00 +14°C° 0 mm 3 m/s 739 mmHg 68%
11:00 +17°C° 0 mm 3 m/s 739 mmHg 61%
12:00 +17°C° 0.1 mm 3 m/s 739 mmHg 60%
13:00 +17°C° 0.1 mm 3 m/s 739 mmHg 60%
14:00 +18°C° 0.1 mm 4 m/s 739 mmHg 59%
15:00 +15°C° 0 mm 4 m/s 739 mmHg 66%
16:00 +14°C° 0 mm 4 m/s 739 mmHg 73%
17:00 +13°C° 0 mm 3 m/s 739 mmHg 80%
18:00 +13°C° 0 mm 3 m/s 740 mmHg 84%
19:00 +13°C° 0 mm 2 m/s 740 mmHg 87%
20:00 +12°C° 0 mm 2 m/s 740 mmHg 91%
21:00 +12°C° 0 mm 2 m/s 740 mmHg 92%
22:00 +10°C° 0 mm 2 m/s 740 mmHg 93%
23:00 +11°C° 0 mm 1 m/s 740 mmHg 95%
Arată mai mult

Formular de consimțământ

Meteoprog și furnizorii noștri de servicii pot stoca și accesa date personale, precum cookies, identificatori de dispozitiv sau alte tehnologii similare pe dispozitivul dumneavoastră și procesa astfel de date pentru a personaliza conținutul și reclamele, dar și pentru a oferi caracteristici de social media și pentru a analiza traficul.

  • Stocarea și/sau accesarea informațiilor pe dispozitivul dumneavoastră

    Cookies, identificatori de dispozitiv sau alte informații pot fi stocate sau accesate pe dispozitiv în scopurile indicate mai sus.

  • Reclame și conținut personalizat, evaluarea reclamelor și a conținutului, informații despre audiențe și dezvoltarea produselor

    Reclamele și conținutul pot fi personalizate pe baza unui profil. Pot fi adăugate date suplimentare pentru a personaliza mai bine reclamele și conținutul. Performanța reclamelor și conținutului poate fi măsurată. Pot fi obținute informații despre utilizatorii care au văzut reclamele și conținutul. Aceste date pot fi utilizate pentru a dezvolta sau îmbunătăți experiența utilizatorilor, sistemele și software-ul.

Dând clic pe ‘Sunt de acord’, permiteți utilizarea cookie-urilor menționate, a identificatorilor de dispozitiv, balizelor web sau altor tehnologii similare. Setările pot fi modificate din browser-ul dispozitivului dumneavoastră.

În anumite scopuri, interesele legitime pot prima asupra consimțământului. Puteți citi mai multe informații în acest sens în Politica privind Confidențialitatea Datelor și Cookie.